This is the latest recevied weather packets stored in our database for station/object UR7D-12. If no packets are shown the sender has not sent any weather packets the latest 1 day(s).
| Time | Temp. | Humidity | Pressure | Rain* | Wind** | Luminosity | Snow |
|---|---|---|---|---|---|---|---|
| 1778040440 | 11.67° C | 69% | 986.6 hPa | 0 mm | - | - | - |
| 1778040140 | 11.67° C | 69% | 986.4 hPa | 0 mm | - | - | - |
| 1778039840 | 11.67° C | 69% | 986.4 hPa | 0 mm | - | - | - |
| 1778039239 | 11.11° C | 70% | 986.3 hPa | 0 mm | - | - | - |
| 1778038939 | 11.11° C | 70% | 986.3 hPa | 0 mm | - | - | - |
| 1778038639 | 11.11° C | 70% | 986.4 hPa | 0 mm | - | - | - |
| 1778038338 | 11.11° C | 71% | 986.4 hPa | 0 mm | - | - | - |
| 1778038038 | 11.11° C | 71% | 986.3 hPa | 0 mm | - | - | - |
| 1778037738 | 11.11° C | 70% | 986.3 hPa | 0 mm | - | - | - |
| 1778037137 | 11.11° C | 70% | 986.3 hPa | 0 mm | - | - | - |
| 1778036837 | 11.11° C | 70% | 986.4 hPa | 0 mm | - | - | - |
| 1778036537 | 11.11° C | 69% | 986.4 hPa | 0 mm | - | - | - |
| 1778035936 | 11.67° C | 69% | 986.2 hPa | 0 mm | - | - | - |
| 1778035636 | 12.22° C | 67% | 986.2 hPa | 0 mm | - | - | - |
| 1778035335 | 12.22° C | 66% | 986.2 hPa | 0 mm | - | - | - |
| 1778035035 | 12.22° C | 65% | 986.1 hPa | 0 mm | - | - | - |
| 1778034735 | 12.78° C | 65% | 986.1 hPa | 0 mm | - | - | - |
| 1778034435 | 12.78° C | 64% | 986 hPa | 0 mm | - | - | - |
| 1778033834 | 12.78° C | 63% | 985.9 hPa | 0 mm | - | - | - |
| 1778033534 | 12.78° C | 63% | 985.9 hPa | 0 mm | - | - | - |
| 1778032933 | 13.33° C | 62% | 986.1 hPa | 0 mm | - | - | - |
| 1778032633 | 12.78° C | 64% | 986.2 hPa | 0 mm | - | - | - |
| 1778032333 | 12.78° C | 64% | 986.2 hPa | 0 mm | - | - | - |
| 1778032032 | 12.78° C | 64% | 986.2 hPa | 0 mm | - | - | - |
| 1778031732 | 13.33° C | 63% | 986.3 hPa | 0 mm | - | - | - |
* Rain latest hour (hover to see other rain measurements)
** Current wind speed in m/s (hover to see current wind gust speed)